Weather History for Willimantic, CT

Change the Weather History Date:

Saturday, October 6, 2012

  Actual Average Record
Temperature  
Mean Temperature 64 °F -  
Max Temperature 78 °F 66 °F 84 °F (2007)
Min Temperature 48 °F 39 °F 22 °F (1984)
Growing Degree Days 14 (Base 50)    
Moisture  
Dew Point 54 °F    
Average Humidity 80    
Maximum Humidity 94    
Minimum Humidity 48    
Precipitation  
Precipitation 0.03 in - - ()
Sea Level Pressure  
Sea Level Pressure 29.86 in    
Wind  
Wind Speed 2 mph (WSW)    
Max Wind Speed 16 mph    
Max Gust Speed 26 mph    
Visibility 6 miles    
Events Fog    
Averages and records for this station are not official NWS values.
T = Trace of Precipitation, MM = Missing Value Source: NWS Daily Summary

Daily Weather History Graph

Daily Weather History Graph

Search for Another Location

Airport:

Trip Planner

Search our weather history database for the weather conditions in past years. The results will help you decide how hot, cold, wet, or windy it might be!

Date:

Astronomy

Oct. 06, 2012 Rise Set
Actual Time 6:51 AM EDT 6:21 PM EDT
Civil Twilight 6:23 AM EDT 6:48 PM EDT
Nautical Twilight 5:51 AM EDT 7:21 PM EDT
Astronomical Twilight 5:19 AM EDT 7:53 PM EDT
Moon 10:30 PM EDT (10/6) 12:47 PM EDT (10/6)
Length of Visible Light 12h 25m
Length of Day
11h 29m
Waning Gibbous, 65% of the Moon is Illuminated
Oct 6
Waning Gibbous
Oct 8
Last Quarter
Oct 15
New
Oct 21
First Quarter
Oct 29
Full

Hourly Weather History & Observations

Time (EDT) Temp. Dew Point Humidity Pressure Visibility Wind Dir Wind Speed Gust Speed Precip Events Conditions
12:52 AM 57.0 °F 54.0 °F 89% 29.93 in 6.0 mi Calm Calm - 0.01 in   Clear
1:52 AM 57.0 °F 53.1 °F 87% 29.92 in 7.0 mi Calm Calm - N/A   Clear
2:52 AM 55.0 °F 53.1 °F 93% 29.89 in 4.0 mi Calm Calm - N/A   Partly Cloudy
3:52 AM 55.0 °F 52.0 °F 89% 29.90 in 5.0 mi Calm Calm - N/A   Clear
4:11 AM 55.4 °F 51.8 °F 88% 29.89 in 6.0 mi Calm Calm - N/A   Scattered Clouds
4:20 AM 53.6 °F 51.8 °F 94% 29.89 in 4.0 mi Calm Calm - N/A   Mostly Cloudy
4:28 AM 53.6 °F 51.8 °F 94% 29.89 in 2.5 mi Calm Calm - N/A   Mostly Cloudy
4:37 AM 55.4 °F 51.8 °F 88% 29.88 in 4.0 mi Calm Calm - N/A   Overcast
4:52 AM 55.0 °F 52.0 °F 89% 29.88 in 6.0 mi Calm Calm - N/A   Overcast
5:30 AM 55.4 °F 51.8 °F 88% 29.87 in 1.5 mi Calm Calm - N/A   Overcast
5:43 AM 55.4 °F 51.8 °F 88% 29.88 in 0.5 mi Calm Calm - N/A Fog Fog
5:50 AM 55.4 °F 53.6 °F 94% 29.87 in 0.2 mi Calm Calm - N/A Fog Fog
5:52 AM 55.0 °F 53.1 °F 93% 29.87 in 0.2 mi Calm Calm - N/A Fog Fog
5:59 AM 55.4 °F 53.6 °F 94% 29.88 in 0.2 mi Calm Calm - N/A Fog Fog
6:44 AM 55.4 °F 53.6 °F 94% 29.87 in 0.2 mi Calm Calm - N/A Fog Fog
6:52 AM 55.9 °F 53.1 °F 90% 29.86 in 0.2 mi Calm Calm - N/A Fog Fog
8:48 AM 59.0 °F 57.2 °F 94% 29.85 in 0.2 mi Calm Calm - N/A Fog Fog
8:52 AM 59.0 °F 57.0 °F 93% 29.86 in 0.2 mi Calm Calm - N/A Fog Fog
9:32 AM 62.6 °F 60.8 °F 94% 29.85 in 0.5 mi Calm Calm - N/A Fog Fog
9:40 AM 62.6 °F 60.8 °F 94% 29.85 in 2.0 mi Calm Calm - N/A   Mostly Cloudy
9:49 AM 64.4 °F 62.6 °F 94% 29.85 in 4.0 mi South 5.8 mph - N/A   Scattered Clouds
9:52 AM 64.9 °F 61.0 °F 87% 29.85 in 6.0 mi SSW 5.8 mph - N/A   Partly Cloudy
10:52 AM 75.0 °F 57.9 °F 55% 29.82 in 10.0 mi SW 10.4 mph - N/A   Clear
11:52 AM 75.9 °F 57.0 °F 52% 29.80 in 10.0 mi SW 15.0 mph 23.0 mph N/A   Clear
12:52 PM 77.0 °F 57.0 °F 50% 29.78 in 10.0 mi SW 13.8 mph 26.5 mph N/A   Partly Cloudy
1:52 PM 77.0 °F 55.9 °F 48% 29.74 in 10.0 mi SW 15.0 mph 26.5 mph N/A   Partly Cloudy
2:52 PM 77.0 °F 57.0 °F 50% 29.74 in 10.0 mi SSW 16.1 mph 26.5 mph N/A   Partly Cloudy
3:52 PM 75.0 °F 57.9 °F 55% 29.73 in 10.0 mi SSW 12.7 mph - N/A   Overcast
4:52 PM 73.0 °F 60.1 °F 64% 29.75 in 10.0 mi WSW 8.1 mph - 0.00 in   Overcast
5:40 PM 60.8 °F 53.6 °F 77% 29.80 in 10.0 mi NW 13.8 mph 23.0 mph 0.02 in   Overcast
5:52 PM 61.0 °F 53.1 °F 75% 29.82 in 10.0 mi WNW 8.1 mph 19.6 mph 0.02 in   Overcast
6:52 PM 59.0 °F 46.9 °F 64% 29.86 in 10.0 mi NW 9.2 mph - N/A   Overcast
7:52 PM 57.0 °F 46.9 °F 69% 29.88 in 10.0 mi Variable 4.6 mph - N/A   Clear
8:52 PM 55.9 °F 46.0 °F 69% 29.90 in 10.0 mi NNW 3.5 mph - N/A   Clear
9:52 PM 54.0 °F 45.0 °F 72% 29.93 in 10.0 mi Variable 3.5 mph - N/A   Clear
10:52 PM 52.0 °F 44.1 °F 74% 29.95 in 10.0 mi Calm Calm - N/A   Clear
11:52 PM 48.9 °F 43.0 °F 80% 29.96 in 10.0 mi Calm Calm - N/A   Clear